contact:dominique.lefevre@mio.osupytheas.fr, maurice.libes@osupytheas.fr, didier.mallarino@osupytheas.fr
Project:EMSO http://www.emso-fr.org/EMSO-France
Depth: 2436.0 m
Title:EMSO Ligure Ouest : Data MII capteur MICROCAT
DateTime_Computer,Latitude,Longitude,Temperature,Conductivity,Pressure,DateTime_Instrument
DateTime_Computer,Latitude,Longitude,degC,S m-1,dbar,DateTime_Instrument
2020-10-20T00:02:06Z,42.805,6.029,13.2981,4.60037,2470.273,2020-10-20T02:03:01Z
2020-10-20T00:05:09Z,42.805,6.029,13.2996,4.60036,2470.227,2020-10-20T02:06:04Z
2020-10-20T00:08:12Z,42.805,6.029,13.2990,4.60029,2470.24,2020-10-20T02:09:07Z
2020-10-20T00:11:15Z,42.805,6.029,13.2982,4.60012,2470.217,2020-10-20T02:12:10Z
2020-10-20T00:14:19Z,42.805,6.029,13.2984,4.60025,2470.264,2020-10-20T02:15:13Z
2020-10-20T00:17:22Z,42.805,6.029,13.2989,4.60037,2470.25,2020-10-20T02:18:16Z
2020-10-20T00:20:25Z,42.805,6.029,13.2988,4.60010,2470.217,2020-10-20T02:21:19Z
2020-10-20T00:23:28Z,42.805,6.029,13.3001,4.60033,2470.25,2020-10-20T02:24:22Z
2020-10-20T00:26:31Z,42.805,6.029,13.2988,4.60019,2470.24,2020-10-20T02:27:25Z
2020-10-20T00:29:34Z,42.805,6.029,13.2982,4.60010,2470.18,2020-10-20T02:30:29Z
2020-10-20T00:32:37Z,42.805,6.029,13.2990,4.60029,2470.203,2020-10-20T02:33:32Z
2020-10-20T00:35:40Z,42.805,6.029,13.2991,4.60038,2470.24,2020-10-20T02:36:35Z
2020-10-20T00:38:44Z,42.805,6.029,13.2983,4.60033,2470.24,2020-10-20T02:39:38Z
2020-10-20T00:41:47Z,42.805,6.029,13.2983,4.60014,2470.203,2020-10-20T02:42:41Z
2020-10-20T00:44:50Z,42.805,6.029,13.2976,4.60008,2470.194,2020-10-20T02:45:44Z
2020-10-20T00:47:53Z,42.805,6.029,13.2981,4.60026,2470.264,2020-10-20T02:48:47Z
2020-10-20T00:50:56Z,42.805,6.029,13.2985,4.60009,2470.203,2020-10-20T02:51:50Z
2020-10-20T00:53:59Z,42.805,6.029,13.2983,4.60029,2470.217,2020-10-20T02:54:54Z
2020-10-20T00:57:02Z,42.805,6.029,13.3004,4.60044,2470.227,2020-10-20T02:57:57Z
2020-10-20T01:00:05Z,42.805,6.029,13.2986,4.60037,2470.217,2020-10-20T03:01:00Z
2020-10-20T01:03:09Z,42.805,6.029,13.2986,4.60023,2470.156,2020-10-20T03:04:03Z
2020-10-20T01:06:12Z,42.805,6.029,13.2993,4.60009,2470.203,2020-10-20T03:07:06Z
2020-10-20T01:09:15Z,42.805,6.029,13.2982,4.59997,2470.194,2020-10-20T03:10:09Z
2020-10-20T01:12:18Z,42.805,6.029,13.2991,4.60016,2470.194,2020-10-20T03:13:12Z
2020-10-20T01:15:21Z,42.805,6.029,13.2987,4.60019,2470.18,2020-10-20T03:16:15Z
2020-10-20T01:18:24Z,42.805,6.029,13.2990,4.60028,2470.194,2020-10-20T03:19:19Z
2020-10-20T01:21:27Z,42.805,6.029,13.2986,4.60019,2470.156,2020-10-20T03:22:22Z
2020-10-20T01:24:30Z,42.805,6.029,13.2983,4.60039,2470.194,2020-10-20T03:25:25Z
2020-10-20T01:27:33Z,42.805,6.029,13.2990,4.60033,2470.166,2020-10-20T03:28:28Z
2020-10-20T01:30:37Z,42.805,6.029,13.2991,4.60039,2470.18,2020-10-20T03:31:31Z
2020-10-20T01:33:40Z,42.805,6.029,13.2995,4.60017,2470.156,2020-10-20T03:34:34Z
2020-10-20T01:36:43Z,42.805,6.029,13.2993,4.60022,2470.171,2020-10-20T03:37:37Z
2020-10-20T01:39:46Z,42.805,6.029,13.2996,4.60031,2470.203,2020-10-20T03:40:40Z
2020-10-20T01:42:49Z,42.805,6.029,13.2989,4.60028,2470.171,2020-10-20T03:43:44Z
2020-10-20T01:45:52Z,42.805,6.029,13.2993,4.60010,2470.133,2020-10-20T03:46:47Z
2020-10-20T01:48:55Z,42.805,6.029,13.2987,4.60019,2470.133,2020-10-20T03:49:50Z
2020-10-20T01:51:58Z,42.805,6.029,13.2988,4.59999,2470.156,2020-10-20T03:52:53Z
2020-10-20T01:55:02Z,42.805,6.029,13.2991,4.60013,2470.194,2020-10-20T03:55:56Z
2020-10-20T01:58:05Z,42.805,6.029,13.2992,4.60021,2470.203,2020-10-20T03:58:59Z
2020-10-20T02:01:08Z,42.805,6.029,13.2991,4.60024,2470.156,2020-10-20T04:02:02Z
2020-10-20T02:04:11Z,42.805,6.029,13.2992,4.60024,2470.156,2020-10-20T04:05:05Z
2020-10-20T02:07:14Z,42.805,6.029,13.2998,4.60006,2470.156,2020-10-20T04:08:09Z
2020-10-20T02:10:17Z,42.805,6.029,13.2986,4.60026,2470.133,2020-10-20T04:11:12Z
2020-10-20T02:13:20Z,42.805,6.029,13.2986,4.60027,2470.156,2020-10-20T04:14:15Z
2020-10-20T02:16:23Z,42.805,6.029,13.3001,4.60021,2470.194,2020-10-20T04:17:18Z
2020-10-20T02:19:27Z,42.805,6.029,13.2990,4.60017,2470.156,2020-10-20T04:20:21Z
2020-10-20T02:22:30Z,42.805,6.029,13.2989,4.60020,2470.18,2020-10-20T04:23:24Z
2020-10-20T02:25:33Z,42.805,6.029,13.2984,4.60010,2470.133,2020-10-20T04:26:27Z
2020-10-20T02:28:36Z,42.805,6.029,13.2993,4.60015,2470.124,2020-10-20T04:29:30Z
2020-10-20T02:31:39Z,42.805,6.029,13.2990,4.60016,2470.18,2020-10-20T04:32:34Z
2020-10-20T02:34:42Z,42.805,6.029,13.2992,4.60005,2470.124,2020-10-20T04:35:37Z
2020-10-20T02:37:45Z,42.805,6.029,13.2994,4.60033,2470.133,2020-10-20T04:38:40Z
2020-10-20T02:40:48Z,42.805,6.029,13.3005,4.60024,2470.156,2020-10-20T04:41:43Z
2020-10-20T02:43:52Z,42.805,6.029,13.2989,4.60020,2470.077,2020-10-20T04:44:46Z
2020-10-20T02:46:55Z,42.805,6.029,13.2993,4.60023,2470.171,2020-10-20T04:47:49Z
2020-10-20T02:49:58Z,42.805,6.029,13.2989,4.60011,2470.156,2020-10-20T04:50:52Z
2020-10-20T02:53:01Z,42.805,6.029,13.2998,4.60023,2470.133,2020-10-20T04:53:55Z
2020-10-20T02:56:04Z,42.805,6.029,13.2997,4.60031,2470.11,2020-10-20T04:56:59Z
2020-10-20T02:59:07Z,42.805,6.029,13.2998,4.60013,2470.11,2020-10-20T05:00:02Z
2020-10-20T03:02:10Z,42.805,6.029,13.2993,4.60020,2470.133,2020-10-20T05:03:05Z
2020-10-20T03:05:13Z,42.805,6.029,13.2991,4.60022,2470.194,2020-10-20T05:06:08Z
2020-10-20T03:08:17Z,42.805,6.029,13.2997,4.60022,2470.147,2020-10-20T05:09:11Z
2020-10-20T03:11:20Z,42.805,6.029,13.3004,4.60009,2470.147,2020-10-20T05:12:14Z
2020-10-20T03:14:23Z,42.805,6.029,13.3004,4.60017,2470.11,2020-10-20T05:15:17Z
2020-10-20T03:17:26Z,42.805,6.029,13.2990,4.60024,2470.11,2020-10-20T05:18:20Z
2020-10-20T03:20:29Z,42.805,6.029,13.3006,4.60033,2470.147,2020-10-20T05:21:23Z
2020-10-20T03:23:32Z,42.805,6.029,13.2998,4.60019,2470.1,2020-10-20T05:24:27Z
2020-10-20T03:26:35Z,42.805,6.029,13.2992,4.60019,2470.124,2020-10-20T05:27:30Z
2020-10-20T03:29:38Z,42.805,6.029,13.3001,4.60003,2470.11,2020-10-20T05:30:33Z
2020-10-20T03:32:42Z,42.805,6.029,13.2992,4.60013,2470.1,2020-10-20T05:33:36Z
2020-10-20T03:35:45Z,42.805,6.029,13.2987,4.60015,2470.11,2020-10-20T05:36:39Z
2020-10-20T03:38:48Z,42.805,6.029,13.2991,4.59995,2470.133,2020-10-20T05:39:42Z
2020-10-20T03:41:51Z,42.805,6.029,13.2990,4.59999,2470.133,2020-10-20T05:42:45Z
2020-10-20T03:44:54Z,42.805,6.029,13.2990,4.60006,2470.156,2020-10-20T05:45:48Z
2020-10-20T03:47:57Z,42.805,6.029,13.2996,4.60010,2470.133,2020-10-20T05:48:52Z
2020-10-20T03:51:00Z,42.805,6.029,13.2990,4.60003,2470.11,2020-10-20T05:51:55Z
2020-10-20T03:54:03Z,42.805,6.029,13.2998,4.60004,2470.124,2020-10-20T05:54:58Z
2020-10-20T03:57:06Z,42.805,6.029,13.2989,4.59997,2470.133,2020-10-20T05:58:01Z
2020-10-20T04:00:10Z,42.805,6.029,13.3002,4.60010,2470.11,2020-10-20T06:01:04Z
2020-10-20T04:03:13Z,42.805,6.029,13.2991,4.60023,2470.11,2020-10-20T06:04:07Z
2020-10-20T04:06:16Z,42.805,6.029,13.2986,4.60021,2470.147,2020-10-20T06:07:10Z
2020-10-20T04:09:19Z,42.805,6.029,13.2998,4.60009,2470.11,2020-10-20T06:10:13Z
2020-10-20T04:12:22Z,42.805,6.029,13.2993,4.60009,2470.11,2020-10-20T06:13:17Z
2020-10-20T04:15:25Z,42.805,6.029,13.2983,4.60023,2470.124,2020-10-20T06:16:20Z
2020-10-20T04:18:28Z,42.805,6.029,13.2998,4.60021,2470.11,2020-10-20T06:19:23Z
2020-10-20T04:21:31Z,42.805,6.029,13.2991,4.60022,2470.147,2020-10-20T06:22:26Z
2020-10-20T04:24:35Z,42.805,6.029,13.2993,4.60005,2470.124,2020-10-20T06:25:29Z
2020-10-20T04:27:38Z,42.805,6.029,13.2987,4.59996,2470.147,2020-10-20T06:28:32Z
2020-10-20T04:30:41Z,42.805,6.029,13.2991,4.60022,2470.133,2020-10-20T06:31:35Z
2020-10-20T04:33:44Z,42.805,6.029,13.3001,4.60019,2470.119,2020-10-20T06:34:38Z
2020-10-20T04:36:47Z,42.805,6.029,13.2986,4.60007,2470.124,2020-10-20T06:37:42Z
2020-10-20T04:39:50Z,42.805,6.029,13.2985,4.60003,2470.11,2020-10-20T06:40:45Z
2020-10-20T04:42:53Z,42.805,6.029,13.2982,4.60004,2470.11,2020-10-20T06:43:48Z
2020-10-20T04:45:56Z,42.805,6.029,13.2981,4.60008,2470.087,2020-10-20T06:46:51Z
2020-10-20T04:49:00Z,42.805,6.029,13.2980,4.59997,2470.133,2020-10-20T06:49:54Z
2020-10-20T04:52:03Z,42.805,6.029,13.2974,4.60002,2470.133,2020-10-20T06:52:57Z
2020-10-20T04:55:06Z,42.805,6.029,13.2991,4.60015,2470.147,2020-10-20T06:56:00Z
2020-10-20T04:58:09Z,42.805,6.029,13.2989,4.60015,2470.133,2020-10-20T06:59:03Z
2020-10-20T05:01:12Z,42.805,6.029,13.2996,4.60022,2470.171,2020-10-20T07:02:07Z
2020-10-20T05:04:15Z,42.805,6.029,13.2978,4.59997,2470.133,2020-10-20T07:05:10Z
2020-10-20T05:07:18Z,42.805,6.029,13.2991,4.60016,2470.156,2020-10-20T07:08:13Z
2020-10-20T05:10:21Z,42.805,6.029,13.2980,4.60002,2470.133,2020-10-20T07:11:16Z
2020-10-20T05:13:25Z,42.805,6.029,13.2987,4.60023,2470.171,2020-10-20T07:14:19Z
2020-10-20T05:16:28Z,42.805,6.029,13.2984,4.60011,2470.156,2020-10-20T07:17:22Z
2020-10-20T05:19:31Z,42.805,6.029,13.2984,4.60016,2470.156,2020-10-20T07:20:25Z
2020-10-20T05:22:34Z,42.805,6.029,13.2984,4.59996,2470.171,2020-10-20T07:23:28Z
2020-10-20T05:25:37Z,42.805,6.029,13.2982,4.60007,2470.156,2020-10-20T07:26:31Z
2020-10-20T05:28:40Z,42.805,6.029,13.2983,4.60008,2470.133,2020-10-20T07:29:35Z
2020-10-20T05:31:43Z,42.805,6.029,13.2981,4.60021,2470.171,2020-10-20T07:32:38Z
2020-10-20T05:34:46Z,42.805,6.029,13.2983,4.60003,2470.156,2020-10-20T07:35:41Z
2020-10-20T05:37:50Z,42.805,6.029,13.2984,4.60006,2470.143,2020-10-20T07:38:44Z
2020-10-20T05:40:53Z,42.805,6.029,13.2980,4.60013,2470.194,2020-10-20T07:41:47Z
2020-10-20T05:43:56Z,42.805,6.029,13.2987,4.60006,2470.156,2020-10-20T07:44:50Z
2020-10-20T05:46:59Z,42.805,6.029,13.2977,4.60001,2470.194,2020-10-20T07:47:53Z
2020-10-20T05:50:02Z,42.805,6.029,13.2983,4.59999,2470.203,2020-10-20T07:50:56Z
2020-10-20T05:53:05Z,42.805,6.029,13.2991,4.60000,2470.24,2020-10-20T07:54:00Z
2020-10-20T05:56:08Z,42.805,6.029,13.2982,4.60010,2470.194,2020-10-20T07:57:03Z
2020-10-20T05:59:11Z,42.805,6.029,13.2986,4.60019,2470.156,2020-10-20T08:00:06Z
2020-10-20T06:02:14Z,42.805,6.029,13.2987,4.60006,2470.194,2020-10-20T08:03:09Z
2020-10-20T06:05:18Z,42.805,6.029,13.2991,4.60014,2470.203,2020-10-20T08:06:12Z
2020-10-20T06:08:21Z,42.805,6.029,13.2990,4.60003,2470.227,2020-10-20T08:09:15Z
2020-10-20T06:11:24Z,42.805,6.029,13.2986,4.60009,2470.18,2020-10-20T08:12:18Z
2020-10-20T06:14:27Z,42.805,6.029,13.2986,4.60019,2470.203,2020-10-20T08:15:21Z
2020-10-20T06:17:30Z,42.805,6.029,13.2979,4.59999,2470.217,2020-10-20T08:18:25Z
2020-10-20T06:20:33Z,42.805,6.029,13.2981,4.59996,2470.24,2020-10-20T08:21:28Z
2020-10-20T06:23:36Z,42.805,6.029,13.2983,4.60007,2470.194,2020-10-20T08:24:31Z
2020-10-20T06:26:39Z,42.805,6.029,13.2979,4.59998,2470.203,2020-10-20T08:27:34Z
2020-10-20T06:29:43Z,42.805,6.029,13.2988,4.60015,2470.217,2020-10-20T08:30:37Z
2020-10-20T06:32:46Z,42.805,6.029,13.2984,4.59990,2470.203,2020-10-20T08:33:40Z
2020-10-20T06:35:49Z,42.805,6.029,13.2984,4.60000,2470.287,2020-10-20T08:36:43Z
2020-10-20T06:38:52Z,42.805,6.029,13.2985,4.60009,2470.227,2020-10-20T08:39:46Z
2020-10-20T06:41:55Z,42.805,6.029,13.2976,4.60007,2470.24,2020-10-20T08:42:50Z
2020-10-20T06:44:58Z,42.805,6.029,13.2980,4.60005,2470.227,2020-10-20T08:45:53Z
2020-10-20T06:48:01Z,42.805,6.029,13.2979,4.60005,2470.236,2020-10-20T08:48:56Z
2020-10-20T06:51:04Z,42.805,6.029,13.2990,4.60013,2470.25,2020-10-20T08:51:59Z
2020-10-20T06:54:08Z,42.805,6.029,13.2980,4.60005,2470.25,2020-10-20T08:55:02Z
2020-10-20T06:57:11Z,42.805,6.029,13.2979,4.59997,2470.203,2020-10-20T08:58:05Z
2020-10-20T07:00:14Z,42.805,6.029,13.2990,4.60003,2470.273,2020-10-20T09:01:08Z
2020-10-20T07:03:17Z,42.805,6.029,13.2978,4.59999,2470.273,2020-10-20T09:04:11Z
2020-10-20T07:06:20Z,42.805,6.029,13.2990,4.60014,2470.273,2020-10-20T09:07:14Z
2020-10-20T07:09:23Z,42.805,6.029,13.2984,4.59996,2470.25,2020-10-20T09:10:18Z
2020-10-20T07:12:26Z,42.805,6.029,13.2980,4.60000,2470.273,2020-10-20T09:13:21Z
2020-10-20T07:15:29Z,42.805,6.029,13.2982,4.60006,2470.273,2020-10-20T09:16:24Z
2020-10-20T07:18:33Z,42.805,6.029,13.2980,4.59998,2470.31,2020-10-20T09:19:27Z
2020-10-20T07:21:36Z,42.805,6.029,13.2984,4.60002,2470.273,2020-10-20T09:22:30Z
2020-10-20T07:24:39Z,42.805,6.029,13.2982,4.59997,2470.297,2020-10-20T09:25:33Z
2020-10-20T07:27:42Z,42.805,6.029,13.2982,4.60004,2470.31,2020-10-20T09:28:36Z
2020-10-20T07:30:45Z,42.805,6.029,13.2978,4.59998,2470.297,2020-10-20T09:31:39Z
2020-10-20T07:33:48Z,42.805,6.029,13.2978,4.60005,2470.273,2020-10-20T09:34:43Z
2020-10-20T07:36:51Z,42.805,6.029,13.2976,4.60001,2470.297,2020-10-20T09:37:46Z
2020-10-20T07:39:54Z,42.805,6.029,13.2988,4.60025,2470.297,2020-10-20T09:40:49Z
2020-10-20T07:42:57Z,42.805,6.029,13.2982,4.60008,2470.343,2020-10-20T09:43:52Z
2020-10-20T07:46:01Z,42.805,6.029,13.2983,4.60001,2470.357,2020-10-20T09:46:55Z
2020-10-20T07:49:04Z,42.805,6.029,13.2983,4.59997,2470.334,2020-10-20T09:49:58Z
2020-10-20T07:52:07Z,42.805,6.029,13.2982,4.60003,2470.32,2020-10-20T09:53:01Z
2020-10-20T07:55:10Z,42.805,6.029,13.2984,4.59988,2470.297,2020-10-20T09:56:04Z
2020-10-20T07:58:13Z,42.805,6.029,13.2983,4.60000,2470.357,2020-10-20T09:59:08Z
2020-10-20T08:01:16Z,42.805,6.029,13.2980,4.60000,2470.297,2020-10-20T10:02:11Z
2020-10-20T08:04:19Z,42.805,6.029,13.2979,4.60005,2470.32,2020-10-20T10:05:14Z
2020-10-20T08:07:22Z,42.805,6.029,13.2988,4.59998,2470.32,2020-10-20T10:08:17Z
2020-10-20T08:10:26Z,42.805,6.029,13.2982,4.59992,2470.343,2020-10-20T10:11:20Z
2020-10-20T08:13:29Z,42.805,6.029,13.2982,4.59999,2470.343,2020-10-20T10:14:23Z
2020-10-20T08:16:32Z,42.805,6.029,13.2986,4.60002,2470.32,2020-10-20T10:17:26Z
2020-10-20T08:19:35Z,42.805,6.029,13.2991,4.60013,2470.343,2020-10-20T10:20:29Z
2020-10-20T08:22:38Z,42.805,6.029,13.2986,4.60008,2470.38,2020-10-20T10:23:33Z
2020-10-20T08:25:41Z,42.805,6.029,13.2980,4.59999,2470.32,2020-10-20T10:26:36Z
2020-10-20T08:28:44Z,42.805,6.029,13.2977,4.59994,2470.343,2020-10-20T10:29:39Z
2020-10-20T08:31:47Z,42.805,6.029,13.2989,4.59996,2470.366,2020-10-20T10:32:42Z
2020-10-20T08:34:51Z,42.805,6.029,13.2980,4.60002,2470.334,2020-10-20T10:35:45Z
2020-10-20T08:37:54Z,42.805,6.029,13.2979,4.59998,2470.343,2020-10-20T10:38:48Z
2020-10-20T08:40:57Z,42.805,6.029,13.2980,4.59991,2470.38,2020-10-20T10:41:51Z
2020-10-20T08:44:00Z,42.805,6.029,13.2983,4.59995,2470.357,2020-10-20T10:44:54Z
2020-10-20T08:47:03Z,42.805,6.029,13.2979,4.59996,2470.38,2020-10-20T10:47:58Z
2020-10-20T08:50:06Z,42.805,6.029,13.2982,4.60000,2470.343,2020-10-20T10:51:01Z
2020-10-20T08:53:09Z,42.805,6.029,13.2987,4.60009,2470.357,2020-10-20T10:54:04Z
2020-10-20T08:56:13Z,42.805,6.029,13.2984,4.59999,2470.357,2020-10-20T10:57:07Z
2020-10-20T08:59:16Z,42.805,6.029,13.2981,4.59985,2470.39,2020-10-20T11:00:10Z
2020-10-20T09:02:19Z,42.805,6.029,13.2985,4.60001,2470.343,2020-10-20T11:03:13Z
2020-10-20T09:05:22Z,42.805,6.029,13.2978,4.59996,2470.353,2020-10-20T11:06:16Z
2020-10-20T09:08:25Z,42.805,6.029,13.2981,4.60001,2470.38,2020-10-20T11:09:19Z
2020-10-20T09:11:28Z,42.805,6.029,13.2982,4.59996,2470.366,2020-10-20T11:12:23Z
2020-10-20T09:14:31Z,42.805,6.029,13.2982,4.59995,2470.38,2020-10-20T11:15:26Z
2020-10-20T09:17:34Z,42.805,6.029,13.2979,4.59996,2470.343,2020-10-20T11:18:29Z
2020-10-20T09:20:38Z,42.805,6.029,13.2982,4.60001,2470.366,2020-10-20T11:21:32Z
2020-10-20T09:23:41Z,42.805,6.029,13.2982,4.60003,2470.366,2020-10-20T11:24:35Z
2020-10-20T09:26:44Z,42.805,6.029,13.2982,4.59994,2470.366,2020-10-20T11:27:38Z
2020-10-20T09:29:47Z,42.805,6.029,13.2976,4.60007,2470.343,2020-10-20T11:30:41Z
2020-10-20T09:32:50Z,42.805,6.029,13.2983,4.60000,2470.343,2020-10-20T11:33:44Z
2020-10-20T09:35:53Z,42.805,6.029,13.2979,4.59996,2470.343,2020-10-20T11:36:48Z
2020-10-20T09:38:56Z,42.805,6.029,13.2983,4.59998,2470.343,2020-10-20T11:39:51Z
2020-10-20T09:41:59Z,42.805,6.029,13.2980,4.59995,2470.38,2020-10-20T11:42:54Z
2020-10-20T09:45:03Z,42.805,6.029,13.2974,4.59998,2470.32,2020-10-20T11:45:57Z
2020-10-20T09:48:06Z,42.805,6.029,13.2978,4.59997,2470.343,2020-10-20T11:49:00Z
2020-10-20T09:51:09Z,42.805,6.029,13.2986,4.59996,2470.38,2020-10-20T11:52:03Z
2020-10-20T09:54:12Z,42.805,6.029,13.2985,4.59996,2470.39,2020-10-20T11:55:06Z
2020-10-20T09:57:15Z,42.805,6.029,13.2979,4.59987,2470.366,2020-10-20T11:58:10Z
2020-10-20T10:00:18Z,42.805,6.029,13.2983,4.60000,2470.343,2020-10-20T12:01:13Z
2020-10-20T10:03:21Z,42.805,6.029,13.2980,4.59993,2470.38,2020-10-20T12:04:16Z
2020-10-20T10:06:24Z,42.805,6.029,13.2984,4.60000,2470.32,2020-10-20T12:07:19Z
2020-10-20T10:09:28Z,42.805,6.029,13.2986,4.60003,2470.343,2020-10-20T12:10:22Z
2020-10-20T10:12:31Z,42.805,6.029,13.2985,4.60006,2470.366,2020-10-20T12:13:25Z
2020-10-20T10:15:34Z,42.805,6.029,13.2981,4.59995,2470.343,2020-10-20T12:16:28Z
2020-10-20T10:18:37Z,42.805,6.029,13.2982,4.59999,2470.39,2020-10-20T12:19:31Z
2020-10-20T10:21:40Z,42.805,6.029,13.2987,4.60005,2470.366,2020-10-20T12:22:35Z
2020-10-20T10:24:43Z,42.805,6.029,13.2983,4.59999,2470.357,2020-10-20T12:25:38Z
2020-10-20T10:27:46Z,42.805,6.029,13.2978,4.59998,2470.38,2020-10-20T12:28:41Z
2020-10-20T10:30:49Z,42.805,6.029,13.2984,4.59996,2470.366,2020-10-20T12:31:44Z
2020-10-20T10:33:53Z,42.805,6.029,13.2987,4.60001,2470.343,2020-10-20T12:34:47Z
2020-10-20T10:36:56Z,42.805,6.029,13.2986,4.60008,2470.343,2020-10-20T12:37:50Z
2020-10-20T10:39:59Z,42.805,6.029,13.2983,4.59990,2470.343,2020-10-20T12:40:53Z
2020-10-20T10:43:02Z,42.805,6.029,13.2976,4.59997,2470.334,2020-10-20T12:43:56Z
2020-10-20T10:46:05Z,42.805,6.029,13.2984,4.59989,2470.32,2020-10-20T12:47:00Z
2020-10-20T10:49:08Z,42.805,6.029,13.2985,4.59998,2470.343,2020-10-20T12:50:03Z
2020-10-20T10:52:11Z,42.805,6.029,13.2983,4.59998,2470.32,2020-10-20T12:53:06Z
2020-10-20T10:55:14Z,42.805,6.029,13.2983,4.59997,2470.334,2020-10-20T12:56:09Z
2020-10-20T10:58:18Z,42.805,6.029,13.2974,4.59994,2470.32,2020-10-20T12:59:12Z
2020-10-20T11:01:21Z,42.805,6.029,13.2980,4.59992,2470.32,2020-10-20T13:02:15Z
2020-10-20T11:04:24Z,42.805,6.029,13.2986,4.60002,2470.357,2020-10-20T13:05:18Z
2020-10-20T11:07:27Z,42.805,6.029,13.2983,4.60009,2470.357,2020-10-20T13:08:21Z
2020-10-20T11:10:30Z,42.805,6.029,13.2982,4.59986,2470.343,2020-10-20T13:11:25Z
2020-10-20T11:13:33Z,42.805,6.029,13.2980,4.60000,2470.32,2020-10-20T13:14:28Z
2020-10-20T11:16:36Z,42.805,6.029,13.2983,4.60004,2470.32,2020-10-20T13:17:31Z
2020-10-20T11:19:39Z,42.805,6.029,13.2990,4.60015,2470.343,2020-10-20T13:20:34Z
2020-10-20T11:22:43Z,42.805,6.029,13.2986,4.60021,2470.334,2020-10-20T13:23:37Z
2020-10-20T11:25:46Z,42.805,6.029,13.2986,4.60005,2470.297,2020-10-20T13:26:40Z
2020-10-20T11:28:49Z,42.805,6.029,13.2988,4.60012,2470.343,2020-10-20T13:29:43Z
2020-10-20T11:31:52Z,42.805,6.029,13.2984,4.60006,2470.334,2020-10-20T13:32:46Z
2020-10-20T11:34:55Z,42.805,6.029,13.2990,4.60001,2470.32,2020-10-20T13:35:50Z
2020-10-20T11:37:58Z,42.805,6.029,13.2983,4.59994,2470.334,2020-10-20T13:38:53Z
2020-10-20T11:41:01Z,42.805,6.029,13.2981,4.59998,2470.297,2020-10-20T13:41:56Z
2020-10-20T11:44:04Z,42.805,6.029,13.2983,4.59999,2470.32,2020-10-20T13:44:59Z
2020-10-20T11:47:08Z,42.805,6.029,13.2988,4.60003,2470.31,2020-10-20T13:48:02Z
2020-10-20T11:50:11Z,42.805,6.029,13.2979,4.60001,2470.334,2020-10-20T13:51:05Z
2020-10-20T11:53:14Z,42.805,6.029,13.2983,4.60005,2470.297,2020-10-20T13:54:08Z
2020-10-20T11:56:17Z,42.805,6.029,13.2983,4.59994,2470.283,2020-10-20T13:57:11Z
2020-10-20T11:59:20Z,42.805,6.029,13.2989,4.60006,2470.32,2020-10-20T14:00:15Z
2020-10-20T12:02:23Z,42.805,6.029,13.2979,4.60007,2470.273,2020-10-20T14:03:18Z
2020-10-20T12:05:26Z,42.805,6.029,13.2986,4.60003,2470.297,2020-10-20T14:06:21Z
2020-10-20T12:08:29Z,42.805,6.029,13.2981,4.60007,2470.273,2020-10-20T14:09:24Z
2020-10-20T12:11:33Z,42.805,6.029,13.2984,4.60004,2470.32,2020-10-20T14:12:27Z
2020-10-20T12:14:36Z,42.805,6.029,13.2984,4.59995,2470.297,2020-10-20T14:15:30Z
2020-10-20T12:17:39Z,42.805,6.029,13.2978,4.59998,2470.297,2020-10-20T14:18:33Z
2020-10-20T12:20:42Z,42.805,6.029,13.2984,4.60006,2470.297,2020-10-20T14:21:36Z
2020-10-20T12:23:45Z,42.805,6.029,13.2986,4.60008,2470.273,2020-10-20T14:24:40Z
2020-10-20T12:26:48Z,42.805,6.029,13.2986,4.59999,2470.273,2020-10-20T14:27:43Z
2020-10-20T12:29:51Z,42.805,6.029,13.2986,4.60011,2470.297,2020-10-20T14:30:46Z
2020-10-20T12:32:54Z,42.805,6.029,13.2981,4.59998,2470.287,2020-10-20T14:33:49Z
2020-10-20T12:35:58Z,42.805,6.029,13.2989,4.60006,2470.287,2020-10-20T14:36:52Z
2020-10-20T12:39:01Z,42.805,6.029,13.2993,4.60007,2470.273,2020-10-20T14:39:55Z
2020-10-20T12:42:04Z,42.805,6.029,13.2981,4.60002,2470.273,2020-10-20T14:42:58Z
2020-10-20T12:45:07Z,42.805,6.029,13.2992,4.60003,2470.25,2020-10-20T14:46:01Z
2020-10-20T12:48:10Z,42.805,6.029,13.2982,4.60004,2470.25,2020-10-20T14:49:05Z
2020-10-20T12:51:13Z,42.805,6.029,13.2985,4.60010,2470.264,2020-10-20T14:52:08Z
2020-10-20T12:54:16Z,42.805,6.029,13.2983,4.60010,2470.264,2020-10-20T14:55:11Z
2020-10-20T12:57:19Z,42.805,6.029,13.2986,4.60019,2470.227,2020-10-20T14:58:14Z
2020-10-20T13:00:23Z,42.805,6.029,13.2991,4.60011,2470.25,2020-10-20T15:01:17Z
2020-10-20T13:03:26Z,42.805,6.029,13.2982,4.60013,2470.264,2020-10-20T15:04:20Z
2020-10-20T13:06:29Z,42.805,6.029,13.2982,4.60005,2470.25,2020-10-20T15:07:23Z
2020-10-20T13:09:32Z,42.805,6.029,13.2992,4.60006,2470.287,2020-10-20T15:10:26Z
2020-10-20T13:12:35Z,42.805,6.029,13.2981,4.60010,2470.25,2020-10-20T15:13:30Z
2020-10-20T13:15:38Z,42.805,6.029,13.2984,4.60009,2470.264,2020-10-20T15:16:33Z
2020-10-20T13:18:41Z,42.805,6.029,13.2986,4.60016,2470.25,2020-10-20T15:19:36Z
2020-10-20T13:21:45Z,42.805,6.029,13.2991,4.60011,2470.25,2020-10-20T15:22:39Z
2020-10-20T13:24:48Z,42.805,6.029,13.2982,4.60015,2470.213,2020-10-20T15:25:42Z
2020-10-20T13:27:51Z,42.805,6.029,13.2986,4.60005,2470.264,2020-10-20T15:28:45Z
2020-10-20T13:30:54Z,42.805,6.029,13.2990,4.60012,2470.227,2020-10-20T15:31:48Z
2020-10-20T13:33:57Z,42.805,6.029,13.2990,4.60011,2470.264,2020-10-20T15:34:51Z
2020-10-20T13:37:00Z,42.805,6.029,13.2997,4.60015,2470.264,2020-10-20T15:37:55Z
2020-10-20T13:40:03Z,42.805,6.029,13.2979,4.60001,2470.287,2020-10-20T15:40:58Z
2020-10-20T13:43:06Z,42.805,6.029,13.2989,4.60010,2470.227,2020-10-20T15:44:01Z
2020-10-20T13:46:10Z,42.805,6.029,13.2992,4.60008,2470.25,2020-10-20T15:47:04Z
2020-10-20T13:49:13Z,42.805,6.029,13.2991,4.60029,2470.24,2020-10-20T15:50:07Z
2020-10-20T13:52:16Z,42.805,6.029,13.2993,4.60031,2470.227,2020-10-20T15:53:10Z
2020-10-20T13:55:19Z,42.805,6.029,13.2993,4.60031,2470.24,2020-10-20T15:56:13Z
2020-10-20T13:58:22Z,42.805,6.029,13.2992,4.60022,2470.227,2020-10-20T15:59:17Z
2020-10-20T14:01:25Z,42.805,6.029,13.2986,4.60023,2470.24,2020-10-20T16:02:20Z
2020-10-20T14:04:28Z,42.805,6.029,13.2988,4.60021,2470.18,2020-10-20T16:05:23Z
2020-10-20T14:07:31Z,42.805,6.029,13.2984,4.60009,2470.25,2020-10-20T16:08:26Z
2020-10-20T14:10:35Z,42.805,6.029,13.2996,4.60021,2470.24,2020-10-20T16:11:29Z
2020-10-20T14:13:38Z,42.805,6.029,13.2986,4.60008,2470.203,2020-10-20T16:14:32Z
2020-10-20T14:16:41Z,42.805,6.029,13.2981,4.60000,2470.217,2020-10-20T16:17:35Z
2020-10-20T14:19:44Z,42.805,6.029,13.2988,4.60014,2470.194,2020-10-20T16:20:38Z
2020-10-20T14:22:47Z,42.805,6.029,13.2990,4.60026,2470.18,2020-10-20T16:23:42Z
2020-10-20T14:25:50Z,42.805,6.029,13.2990,4.60035,2470.217,2020-10-20T16:26:45Z
2020-10-20T14:28:53Z,42.805,6.029,13.2988,4.60004,2470.203,2020-10-20T16:29:48Z
2020-10-20T14:31:56Z,42.805,6.029,13.2993,4.60019,2470.18,2020-10-20T16:32:51Z
2020-10-20T14:35:00Z,42.805,6.029,13.2984,4.60013,2470.217,2020-10-20T16:35:54Z
2020-10-20T14:38:03Z,42.805,6.029,13.2993,4.60013,2470.24,2020-10-20T16:38:57Z
2020-10-20T14:41:06Z,42.805,6.029,13.2991,4.60017,2470.203,2020-10-20T16:42:00Z
2020-10-20T14:44:09Z,42.805,6.029,13.2990,4.60015,2470.203,2020-10-20T16:45:03Z
2020-10-20T14:47:12Z,42.805,6.029,13.2988,4.60013,2470.18,2020-10-20T16:48:07Z
2020-10-20T14:50:15Z,42.805,6.029,13.2991,4.60028,2470.18,2020-10-20T16:51:10Z
2020-10-20T14:53:18Z,42.805,6.029,13.2993,4.60019,2470.194,2020-10-20T16:54:13Z
2020-10-20T14:56:21Z,42.805,6.029,13.2979,4.60007,2470.18,2020-10-20T16:57:16Z
2020-10-20T14:59:25Z,42.805,6.029,13.2981,4.60018,2470.18,2020-10-20T17:00:19Z
2020-10-20T15:02:28Z,42.805,6.029,13.2983,4.60011,2470.171,2020-10-20T17:03:22Z